Location: Pel�-Koumbol�
(14.9505°N, 3.0798°W)
Time: 10:14:48
(UTC+00:00)

CZ-3 R/B - Pass Details

Date: 17 February 2020
Orbit: 351 x 10264 km, 28.4° (Epoch: 28 March)

Event Time Altitude Azimuth Distance (km) Brightness Sun altitude
Rises 03:24:50 0° 291° (WNW) 14,968 7.2 -46.6°
Enters shadow 03:31:52 - 292° (WNW) 14,194 7.0 -44.9°
Exits shadow 04:14:52 40° 299° (WNW) 6,198 5.0 -34.5°
Maximum altitude 04:28:29 84° 23° (NNE) 2,840 3.7 -31.3°
Drops below altitude 10° 04:37:52 10° 112° (ESE) 3,449 5.2 -29.0°
Sets 04:39:39 0° 112° (ESE) 3,996 5.8 -28.6°
